Location: Banff
(51.1667°N, 115.5667°W)
Time: 15:35:11
(UTC+00:00)

Envisat - Visible Passes

Search period start: 27 October 2020 00:00
Search period end: 06 November 2020 00:00
Orbit: 764 x 766 km, 98.1° (Epoch: 27 October)

Date Brightness Start Highest point End Pass type
(mag) Time Alt. Az. Time Alt. Az. Time Alt. Az.
27 Oct 5.1 01:37:35 10° SSW 01:42:03 31° W 01:46:34 10° NNW visible
27 Oct 3.6 13:40:15 10° NNE 13:45:20 65° ESE 13:50:23 10° S visible
28 Oct 3.7 01:00:01 10° S 01:05:02 61° W 01:10:06 10° NNW visible
28 Oct 5.0 13:03:45 10° NNE 13:08:20 33° E 13:12:53 10° SSE visible
29 Oct 5.9 02:04:08 10° SW 02:07:46 19° W 02:11:25 10° NW visible
29 Oct 6.1 12:27:51 10° NE 12:31:08 17° E 12:34:23 10° SE visible
30 Oct 4.7 01:25:54 10° SSW 01:30:36 37° W 01:35:20 10° NNW visible
30 Oct 4.0 13:28:56 10° NNE 13:33:55 52° E 13:38:52 10° S visible
31 Oct 3.3 00:48:34 10° S 00:53:38 74° WSW 00:58:45 10° NNW visible
31 Oct 6.4 02:31:44 10° WSW 02:33:34 12° W 02:35:25 10° WNW visible
31 Oct 5.3 12:52:33 10° NE 12:56:52 27° E 13:01:08 10° SSE visible
01 Nov 5.6 01:52:13 10° SW 01:56:16 24° W 02:00:20 10° NW visible
01 Nov 6.3 12:17:02 10° NE 12:19:35 14° E 12:22:08 10° ESE visible
01 Nov 3.1 13:54:17 10° NNE 13:59:25 84° ESE 14:04:30 10° SSW visible
02 Nov 4.3 01:14:18 10° S 01:19:10 46° W 01:24:03 10° NNW visible
02 Nov 4.4 13:17:38 10° NNE 13:22:29 43° E 13:27:18 10° S visible
03 Nov 6.2 02:19:12 10° WSW 02:22:01 15° W 02:24:51 10° NW visible
03 Nov 5.6 12:41:25 10° NE 12:45:22 22° E 12:49:18 10° SE visible
04 Nov 5.2 01:40:24 10° SSW 01:44:46 29° W 01:49:11 10° NNW visible
04 Nov 6.4 12:06:41 10° ENE 12:08:02 11° E 12:09:23 10° E visible
04 Nov 3.4 13:42:55 10° NNE 13:48:01 69° ESE 13:53:05 10° S visible
05 Nov 3.8 01:02:45 10° S 01:07:44 56° W 01:12:45 10° NNW visible
05 Nov 4.8 13:06:22 10° NNE 13:11:02 35° E 13:15:40 10° SSE visible
